Wind_Speed
82 79 71 65 61 57 52 45 39 35 30 25 22 19 17 16 17 21 28 36 45 56 67 79 91 118 134 125 124 115 113 114 118 113 106 103 98 94 94 90 87 81 80 75 68 63 60 60 60 59 59 58 55 55
81 78 71 64 58 57 52 45 40 35 31 29 23 19 15 13 13 15 20 27 34 44 54 67 78 89 113 138 126 124 117 114 111 116 112 109 104 101 95 93 88 85 75 74 72 66 64 64 63 58 55 50 49 47
78 77 70 64 56 55 51 45 41 37 31 30 28 21 14 11 10 10 13 18 25 34 44 55 65 73 84 110 132 129 125 116 114 115 118 112 108 105 97 92 88 82 81 83 80 70 70 66 64 66 62 56 52 54
76 75 66 60 54 54 48 42 40 40 36 32 30 26 19 13 8 6 8 11 17 25 33 40 47 58 72 86 110 132 131 125 118 110 117 118 113 110 107 98 88 85 82 78 75 78 76 70 66 68 62 58 57 60
74 71 61 55 52 50 46 42 41 39 38 34 31 28 24 18 13 8 4 4 9 16 23 29 37 45 55 68 83 106 128 131 120 120 115 120 123 118 112 104 95 97 93 86 85 83 76 71 68 69 68 64 65 62
70 68 59 52 50 48 41 41 42 41 36 34 32 30 26 22 18 15 11 4 2 8 14 20 26 33 42 54 66 80 99 119 130 124 119 115 120 123 117 104 105 104 102 93 87 81 75 70 68 67 69 70 68 66
66 65 58 52 50 47 39 37 40 38 37 32 30 29 27 25 22 19 16 12 7 2 5 10 17 24 31 40 51 63 75 90 112 129 125 121 120 115 119 112 113 110 106 96 87 78 75 73 71 69 71 71 68 68
62 60 56 50 50 46 38 34 36 41 31 30 30 30 28 28 27 24 22 20 16 11 6 6 8 13 20 28 39 49 60 70 81 103 124 127 125 117 107 105 117 117 109 104 92 83 81 77 77 73 73 75 72 68
59 55 55 46 48 47 38 33 32 37 28 28 27 29 33 31 28 29 31 30 26 21 16 13 8 7 12 18 24 34 44 54 65 77 93 112 126 116 106 106 110 113 110 105 98 89 86 83 80 78 73 77 78 75
56 52 51 45 42 46 39 31 27 28 31 23 21 29 35 37 38 38 39 38 36 33 27 21 14 11 9 11 16 22 29 39 49 60 69 78 94 118 114 116 116 106 105 99 94 90 91 87 85 79 79 78 77 77
53 49 47 44 40 39 41 33 25 29 26 21 26 26 34 33 37 38 43 44 43 42 38 33 25 18 12 11 12 16 19 25 33 42 52 61 70 85 110 125 118 117 110 95 89 89 91 91 87 79 80 82 78 77
51 46 43 43 38 39 41 36 26 25 26 18 20 28 32 35 31 36 41 45 49 52 49 45 37 29 24 19 17 16 16 17 18 25 34 43 53 64 78 103 123 118 108 105 92 90 87 84 83 84 86 85 82 76
47 44 40 40 37 35 36 39 32 21 19 14 13 27 31 29 36 42 47 51 55 58 59 57 55 46 41 35 31 29 25 21 19 17 20 27 36 46 58 72 91 107 115 103 99 91 86 80 75 78 73 71 79 82
44 42 36 35 37 34 32 34 34 23 16 14 10 27 27 34 32 38 41 49 53 57 54 56 63 66 61 57 54 55 49 42 33 27 23 18 18 25 35 46 58 75 93 107 103 91 83 79 79 81 81 80 82 80
40 38 36 32 33 32 35 31 29 25 22 18 12 20 25 29 31 35 47 52 51 51 45 45 48 52 58 63 62 63 65 64 62 54 48 37 32 19 19 25 36 49 65 81 94 99 88 86 90 88 90 93 91 86
36 36 35 33 31 30 31 27 28 36 24 9 13 18 24 25 30 43 45 46 45 43 39 34 41 48 53 53 53 52 52 53 55 55 53 55 51 41 35 34 24 31 43 57 74 88 100 100 95 93 91 90 85 84
40 35 33 31 28 29 28 27 27 31 29 13 13 20 18 30 32 39 36 40 37 32 32 31 31 37 41 43 42 45 46 47 49 51 48 47 47 51 35 33 28 25 28 30 32 58 89 97 100 100 95 88 87 89
34 34 32 29 29 29 28 24 23 25 23 17 11 15 14 29 33 36 32 33 33 29 27 26 34 33 27 23 28 34 38 36 30 34 37 37 41 40 35 26 23 19 25 26 39 54 58 61 74 88 98 104 101 96
30 29 29 28 27 26 25 24 23 24 21 19 17 12 17 22 36 31 31 26 25 26 28 27 27 27 26 24 24 27 27 28 28 31 31 33 31 38 41 36 32 33 23 26 31 25 17 21 25 37 54 74 83 91
32 30 27 27 24 24 24 25 24 21 20 20 18 14 13 17 22 28 32 30 28 31 27 29 25 24 25 24 25 28 27 30 33 34 33 34 31 32 35 35 35 40 39 32 41 43 40 36 40 35 40 50 59 58
34 35 33 28 26 24 22 21 20 19 18 17 17 15 11 8 18 23 28 35 30 30 34 33 34 31 29 28 28 27 25 30 33 35 33 33 35 34 34 35 43 46 45 44 37 46 49 49 50 59 63 62 61 62
35 33 33 31 27 24 23 20 17 16 16 16 13 11 10 7 3 10 19 27 30 24 25 31 30 33 38 40 37 35 37 34 33 37 42 40 38 38 42 41 43 48 49 50 51 49 51 55 58 59 59 60 62 63
36 34 33 30 28 26 24 21 18 17 16 14 13 11 7 3 3 3 4 7 18 26 32 36 37 27 36 39 44 46 42 44 43 43 48 49 49 46 46 47 49 53 57 59 61 60 60 62 64 65 68 73 73 73
41 39 33 31 28 26 26 22 21 21 21 18 13 12 12 11 8 7 8 9 11 14 18 25 32 36 40 36 35 39 50 56 51 58 57 58 61 62 59 58 58 59 59 62 65 66 69 72 72 70 71 74 79 83
42 39 36 36 34 29 25 24 22 16 15 15 14 17 23 22 15 14 11 11 13 14 15 17 20 25 29 33 40 43 44 44 54 59 61 65 65 64 67 68 72 74 71 70 72 72 71 74 77 80 83 84 86 90
46 44 41 40 37 31 25 23 19 18 17 16 15 9 25 28 21 17 16 17 14 14 17 18 20 23 25 25 28 30 34 38 45 51 55 60 64 65 74 77 78 80 85 86 90 90 90 90 89 90 90 89 91 92
46 45 45 45 38 32 26 21 18 17 17 17 16 17 18 19 17 16 18 16 13 10 11 18 18 14 17 19 24 28 31 33 35 35 38 42 49 59 66 76 88 94 93 94 92 91 95 100 103 103 102 102 101 100
47 48 46 44 37 31 24 21 17 15 14 13 12 12 11 11 11 11 10 9 11 12 11 11 12 15 18 20 22 25 30 33 35 38 34 34 38 45 46 44 52 60 62 67 74 79 89 94 98 103 107 110 112 108
48 48 46 41 36 29 22 19 17 15 15 15 14 13 12 11 10 10 10 11 11 12 14 15 16 18 20 22 24 25 29 34 34 36 38 39 39 41 46 50 50 53 57 60 62 64 68 69 70 72 74 76 78 76
46 47 44 41 35 30 23 18 16 14 15 15 15 13 13 13 12 11 11 12 14 16 20 23 27 29 31 34 36 37 39 44 45 48 50 52 53 53 54 55 56 57 57 59 59 58 62 68 65 65 66 67 67 71
51 50 42 37 30 25 20 17 16 15 15 16 18 18 18 18 18 19 20 22 24 26 29 31 35 39 42 45 48 50 49 50 50 51 53 54 56 57 59 60 60 60 60 60 60 59 60 64 66 65 66 68 67 68
34 31 27 27 27 23 20 19 20 21 22 22 22 22 23 25 26 27 26 27 29 33 37 42 45 49 53 55 57 57 55 53 51 49 46 45 46 45 45 47 49 51 53 53 55 56 56 57 59 60 59 60 62 63
34 29 23 20 21 22 21 20 21 21 20 20 20 20 23 24 25 28 31 34 37 40 44 49 54 55 57 57 53 51 48 49 49 48 43 41 40 39 39 39 39 41 42 44 46 49 50 51 52 53 52 52 52 53
Wind_Direction
353 352 350 351 354 354 351 352 351 349 346 345 332 322 304 283 265 248 236 232 227 225 225 223 223 224 225 223 222 222 222 223 220 221 221 223 223 224 224 226 229 228 228 228 228 228 230 233 236 238 240 243 243 243
353 353 350 350 354 355 354 356 357 357 358 358 353 340 325 302 275 253 241 233 229 226 225 224 223 222 222 224 222 222 221 222 222 222 221 222 221 223 224 225 226 228 230 231 229 226 226 230 233 236 236 234 238 241
352 354 351 350 355 358 356 0 5 4 7 8 6 360 349 332 305 273 247 237 229 226 225 224 223 223 222 221 223 222 222 221 220 220 221 221 221 224 225 226 226 226 226 228 228 228 227 227 231 232 230 233 235 240
352 354 353 352 357 1 0 3 8 10 10 16 15 11 9 4 346 309 264 239 231 226 225 226 225 223 220 220 221 223 222 221 221 220 221 221 222 222 224 225 227 229 232 231 229 228 230 225 227 231 231 235 238 241
353 356 356 358 2 4 5 10 12 13 14 19 21 19 18 18 22 13 341 258 238 231 225 225 223 221 221 221 221 221 224 223 220 221 221 221 222 223 223 223 224 228 229 228 229 231 232 230 228 232 235 236 238 242
355 358 358 5 7 8 10 15 14 16 19 25 27 29 31 32 34 38 34 25 229 225 222 221 221 222 221 219 220 221 222 223 222 220 221 221 223 223 224 223 225 228 230 229 228 229 230 235 236 236 241 238 241 244
354 360 1 7 10 12 11 14 13 18 17 30 39 41 41 41 43 48 54 59 64 112 197 212 215 217 217 218 220 220 222 223 222 221 221 221 223 223 223 222 227 229 231 231 232 233 230 230 232 235 240 244 244 247
353 0 1 6 10 13 14 17 20 16 20 32 42 47 50 56 58 59 62 62 67 74 99 139 188 207 214 216 217 218 220 221 222 222 221 221 223 222 222 222 226 229 229 230 230 230 229 230 233 234 235 239 242 244
353 360 2 6 11 15 15 22 23 16 29 36 48 63 68 65 65 71 72 71 70 71 79 91 110 154 189 203 214 218 219 220 221 222 223 222 223 223 220 223 227 228 230 231 231 229 228 228 229 233 237 239 241 241
353 358 3 3 13 13 19 20 32 21 23 39 44 77 79 78 79 79 79 80 77 78 78 77 86 110 138 171 191 204 213 217 219 220 221 222 224 223 220 222 226 227 227 229 230 228 227 228 229 229 236 240 243 243
352 355 3 3 13 16 22 25 37 43 27 31 29 82 83 87 88 90 88 87 85 85 82 79 78 84 97 130 160 176 191 204 212 216 217 218 219 217 217 220 224 226 228 225 227 226 226 228 230 230 234 238 241 244
352 355 360 4 11 21 24 28 42 51 32 26 27 81 86 97 94 92 93 93 93 90 86 84 84 87 92 105 117 134 152 165 186 203 209 213 215 216 216 218 221 222 223 224 222 225 227 228 230 232 237 237 238 241
351 356 359 4 11 23 28 30 38 47 63 38 4 85 101 105 100 98 101 101 97 94 91 88 87 89 90 92 97 101 109 121 136 156 182 201 210 214 217 217 218 219 219 221 221 221 224 227 229 232 238 245 244 241
351 357 360 3 11 21 26 36 42 38 74 98 73 108 109 108 107 104 106 104 97 94 92 91 93 91 91 92 92 91 91 95 102 117 126 139 172 199 210 213 215 216 215 217 219 221 221 225 226 229 224 224 229 240
355 358 360 4 14 19 26 30 44 57 62 94 80 129 118 122 112 104 109 105 97 95 92 92 95 94 91 92 94 94 93 91 90 90 91 96 93 120 163 186 199 206 209 211 216 218 221 223 227 231 232 233 239 240
357 359 3 9 15 19 24 18 45 54 56 90 126 129 135 123 121 119 115 109 104 102 98 97 99 94 94 93 92 95 98 98 97 99 99 99 95 94 106 111 132 180 195 203 211 216 221 224 226 230 233 236 239 242
1 3 7 12 15 20 22 22 37 51 50 72 130 137 132 143 132 129 125 120 115 107 109 100 104 100 97 96 97 100 103 102 100 98 100 100 110 114 109 98 86 116 154 154 198 222 220 226 231 234 238 239 238 242
355 360 1 4 10 18 23 21 34 40 45 67 116 163 150 151 140 139 138 133 127 130 119 119 124 118 114 112 115 118 113 112 110 112 109 113 121 127 129 130 123 102 133 176 182 184 205 221 229 233 235 238 240 241
351 351 355 0 358 5 16 12 25 37 36 45 63 126 163 164 156 157 159 155 146 145 138 135 142 138 135 142 135 133 134 139 140 144 138 137 138 140 149 149 159 164 178 170 162 190 192 188 204 225 236 239 244 243
352 356 354 349 350 356 7 8 12 27 35 47 57 80 146 164 181 174 183 173 171 167 164 159 156 170 162 160 160 161 165 164 162 162 160 161 152 161 165 172 177 181 183 191 189 192 207 208 210 219 214 208 216 232
355 352 351 350 347 348 351 353 359 10 20 36 40 43 69 154 196 197 196 193 192 193 188 182 182 184 188 187 186 187 183 179 177 176 178 184 180 175 180 190 189 192 196 201 206 201 198 203 214 213 217 224 234 237
0 358 353 351 352 352 349 343 348 354 358 9 19 20 22 35 98 192 212 222 219 221 224 209 216 204 196 199 200 197 193 197 203 197 194 201 200 197 197 198 202 208 211 212 213 213 214 219 223 224 226 229 233 237
5 5 3 357 350 349 348 349 345 343 339 336 332 348 353 337 303 283 251 228 225 222 227 229 228 231 225 221 213 207 203 203 208 212 205 203 203 207 212 206 206 212 213 212 214 216 219 221 226 229 232 232 233 238
4 1 2 3 358 346 347 349 352 344 338 332 328 315 313 314 301 274 252 238 241 244 236 233 237 239 234 238 236 232 226 215 214 211 213 215 212 211 214 217 220 224 221 219 221 226 229 231 234 235 235 238 240 243
359 359 1 2 0 352 345 334 330 324 273 311 325 348 344 310 297 290 287 260 260 252 244 245 245 244 244 247 244 241 240 238 233 229 228 223 222 223 222 221 222 220 227 232 232 230 234 237 238 239 242 246 248 246
357 357 356 356 356 352 344 338 328 312 306 301 296 231 232 271 289 294 287 284 287 291 275 260 253 253 253 252 249 247 245 245 244 240 235 232 234 235 234 232 229 228 226 231 231 232 235 232 236 242 245 246 249 250
352 352 351 348 349 350 346 340 328 323 320 314 304 292 283 283 287 288 287 291 302 321 286 276 276 267 270 272 261 260 258 258 258 251 246 244 243 249 244 238 238 237 235 237 241 241 241 241 243 242 245 249 249 251
352 350 348 344 344 350 347 340 342 342 340 341 337 328 317 307 302 299 305 320 327 330 334 333 315 302 292 285 278 273 273 272 272 275 270 263 261 261 258 245 245 249 248 249 249 250 250 252 253 252 253 254 257 257
353 353 350 351 349 353 352 346 356 360 356 4 14 11 12 15 10 5 355 353 350 340 341 335 329 318 309 307 303 300 295 290 285 280 278 274 268 264 263 264 260 256 256 255 254 254 254 253 253 253 253 255 255 256
358 358 357 355 354 360 359 1 11 24 23 27 30 28 32 34 33 27 17 7 356 346 338 331 326 321 315 309 303 298 292 288 284 281 278 276 274 270 267 264 262 261 261 259 257 253 255 260 257 257 258 258 257 256
336 352 358 2 8 10 15 28 40 41 44 45 39 32 26 19 11 5 359 352 344 336 332 328 324 321 318 314 310 306 302 295 289 285 281 278 276 275 275 274 273 271 269 268 267 265 262 261 262 261 261 262 262 263
352 351 357 6 21 26 35 41 40 36 32 23 15 10 5 1 357 350 346 342 337 333 331 329 327 323 318 313 310 308 306 303 301 298 295 291 288 283 280 277 276 275 274 274 273 272 271 269 269 269 267 266 265 264
353 352 353 2 7 13 17 19 19 17 14 11 9 4 356 351 348 344 340 337 336 333 332 329 325 321 317 316 314 312 310 307 306 304 302 300 295 293 290 287 283 280 278 276 273 273 273 273 273 272 272 271 270 269
Height
10496 10477 10459 10444 10428 10412 10398 10386 10374 10363 10355 10349 10342 10338 10334 10333 10333 10336 10338 10343 10350 10358 10368 10381 10395 10418 10438 10463 10488 10511 10534 10549 10571 10592 10616 10627 10645 10659 10668 10688 10700 10718 10728 10742 10757 10770 10779 10782 10784 10791 10798 10809 10815 10819
10494 10477 10459 10444 10428 10412 10399 10386 10374 10364 10354 10347 10341 10336 10332 10329 10329 10329 10332 10336 10341 10348 10358 10365 10377 10391 10411 10436 10463 10486 10506 10526 10553 10576 10591 10608 10625 10634 10653 10664 10684 10699 10724 10734 10741 10756 10760 10765 10773 10784 10789 10797 10800 10808
10494 10477 10459 10444 10428 10413 10401 10389 10377 10366 10356 10348 10342 10337 10332 10329 10328 10327 10327 10331 10335 10340 10346 10351 10362 10376 10394 10413 10435 10459 10481 10506 10524 10546 10568 10587 10605 10617 10639 10658 10669 10689 10700 10706 10716 10737 10744 10753 10761 10767 10775 10783 10793 10795
10494 10477 10460 10445 10430 10416 10404 10392 10381 10370 10361 10352 10345 10339 10334 10330 10327 10326 10326 10327 10330 10335 10339 10346 10356 10365 10376 10392 10410 10432 10455 10478 10507 10531 10546 10567 10584 10598 10611 10636 10663 10672 10684 10700 10711 10715 10723 10739 10750 10755 10768 10776 10782 10782
10495 10478 10461 10448 10433 10420 10408 10397 10386 10376 10367 10358 10351 10344 10338 10333 10330 10328 10327 10327 10329 10332 10336 10341 10347 10356 10367 10380 10394 10409 10431 10455 10485 10505 10521 10541 10556 10572 10592 10616 10647 10645 10660 10677 10688 10694 10716 10731 10742 10747 10756 10765 10768 10776
10497 10481 10466 10451 10437 10425 10415 10405 10394 10384 10374 10365 10358 10350 10344 10339 10334 10330 10330 10329 10330 10331 10335 10338 10344 10351 10360 10370 10382 10396 10410 10429 10459 10482 10504 10520 10533 10557 10577 10614 10618 10627 10629 10653 10669 10689 10711 10725 10737 10743 10745 10752 10758 10763
10500 10485 10470 10457 10443 10430 10420 10411 10401 10392 10383 10374 10365 10358 10351 10346 10342 10337 10334 10331 10332 10333 10335 10338 10342 10347 10354 10363 10373 10383 10397 10413 10434 10459 10481 10497 10505 10532 10558 10596 10595 10606 10619 10649 10669 10688 10702 10710 10717 10730 10735 10739 10750 10752
10502 10489 10475 10462 10449 10436 10426 10417 10409 10400 10392 10384 10376 10368 10361 10354 10349 10344 10340 10338 10336 10336 10337 10338 10342 10346 10352 10357 10365 10374 10385 10400 10417 10433 10453 10474 10488 10516 10546 10582 10572 10588 10611 10627 10651 10673 10687 10701 10706 10714 10721 10722 10731 10741
10504 10492 10479 10467 10455 10443 10432 10422 10414 10409 10402 10396 10387 10379 10373 10368 10361 10355 10350 10347 10345 10344 10343 10343 10343 10346 10350 10355 10363 10371 10380 10391 10404 10418 10432 10452 10478 10503 10557 10551 10554 10569 10593 10614 10635 10657 10669 10682 10691 10700 10707 10710 10714 10724
10505 10495 10484 10472 10461 10449 10438 10430 10421 10415 10412 10405 10398 10389 10385 10380 10374 10369 10362 10358 10355 10354 10352 10351 10351 10350 10354 10357 10361 10368 10375 10385 10396 10406 10420 10441 10461 10497 10518 10525 10531 10551 10569 10598 10620 10639 10650 10662 10676 10692 10694 10698 10706 10713
10507 10496 10487 10476 10466 10456 10445 10436 10428 10423 10420 10415 10409 10399 10394 10392 10388 10381 10375 10372 10370 10367 10366 10364 10362 10361 10361 10362 10365 10369 10374 10382 10391 10401 10412 10425 10440 10460 10479 10497 10510 10533 10557 10584 10603 10616 10634 10647 10662 10677 10682 10686 10692 10701
10508 10498 10489 10480 10471 10462 10452 10442 10435 10429 10427 10426 10423 10409 10406 10407 10402 10396 10391 10387 10383 10382 10382 10379 10377 10373 10372 10371 10373 10376 10378 10384 10392 10399 10407 10419 10430 10442 10460 10476 10489 10514 10539 10567 10588 10603 10620 10634 10649 10662 10667 10667 10680 10689
10510 10499 10491 10483 10475 10467 10459 10450 10441 10436 10432 10433 10433 10421 10421 10419 10413 10410 10406 10401 10398 10396 10397 10397 10393 10388 10385 10383 10381 10381 10385 10390 10395 10401 10409 10418 10427 10435 10446 10459 10475 10501 10528 10552 10574 10589 10604 10625 10643 10644 10650 10650 10670 10672
10511 10502 10493 10486 10478 10471 10465 10457 10449 10441 10437 10435 10439 10434 10431 10428 10424 10420 10419 10416 10415 10413 10412 10412 10410 10406 10400 10396 10393 10394 10397 10399 10402 10406 10411 10418 10426 10434 10443 10455 10469 10489 10512 10537 10557 10587 10606 10613 10627 10631 10643 10642 10644 10652
10513 10504 10496 10489 10482 10475 10468 10464 10456 10447 10443 10443 10445 10443 10440 10437 10434 10433 10431 10429 10428 10429 10429 10428 10425 10420 10415 10410 10409 10409 10411 10413 10416 10420 10423 10426 10431 10437 10446 10456 10466 10480 10500 10525 10552 10576 10589 10600 10606 10612 10622 10629 10632 10641
10515 10507 10499 10491 10485 10479 10474 10472 10461 10452 10453 10451 10448 10449 10449 10446 10444 10442 10442 10439 10440 10441 10442 10442 10439 10435 10431 10429 10429 10428 10427 10429 10432 10434 10437 10438 10446 10453 10457 10464 10472 10484 10497 10517 10535 10554 10568 10580 10586 10592 10603 10616 10624 10629
10517 10510 10504 10497 10490 10484 10479 10475 10469 10461 10460 10457 10456 10454 10454 10454 10452 10453 10452 10448 10448 10449 10451 10451 10450 10447 10447 10447 10447 10446 10446 10448 10448 10448 10451 10452 10459 10464 10472 10477 10484 10495 10507 10522 10540 10541 10554 10564 10575 10582 10591 10601 10608 10612
10520 10513 10506 10501 10495 10489 10482 10479 10473 10467 10465 10462 10459 10459 10459 10459 10458 10457 10456 10454 10454 10454 10454 10457 10458 10455 10456 10457 10457 10458 10459 10460 10461 10463 10466 10469 10471 10476 10479 10485 10494 10505 10514 10526 10535 10540 10539 10547 10558 10565 10571 10581 10588 10594
10520 10514 10508 10503 10498 10492 10487 10481 10477 10471 10467 10465 10462 10460 10462 10463 10463 10462 10461 10461 10460 10460 10459 10460 10461 10460 10461 10462 10463 10464 10465 10465 10466 10467 10470 10476 10481 10484 10489 10494 10502 10510 10518 10524 10526 10535 10537 10542 10546 10552 10558 10566 10572 10576
10519 10513 10507 10502 10498 10493 10489 10484 10479 10474 10471 10467 10466 10465 10463 10464 10465 10466 10466 10465 10465 10464 10463 10460 10462 10463 10464 10465 10467 10467 10466 10468 10470 10471 10475 10479 10482 10486 10490 10495 10500 10506 10513 10519 10522 10526 10531 10537 10541 10544 10548 10552 10556 10558
10518 10510 10505 10501 10495 10491 10487 10484 10482 10478 10473 10470 10468 10466 10466 10466 10466 10466 10467 10467 10467 10467 10467 10464 10463 10463 10466 10467 10467 10469 10470 10472 10474 10475 10476 10479 10483 10486 10491 10493 10496 10501 10507 10511 10514 10517 10522 10527 10531 10534 10537 10538 10542 10546
10517 10510 10503 10497 10493 10489 10485 10482 10479 10476 10474 10472 10469 10467 10465 10465 10465 10465 10465 10465 10467 10467 10468 10467 10467 10466 10466 10466 10466 10467 10469 10470 10473 10474 10476 10478 10481 10484 10485 10488 10495 10499 10500 10504 10508 10512 10514 10515 10518 10521 10525 10528 10529 10531
10518 10510 10503 10497 10491 10487 10484 10480 10476 10474 10472 10470 10469 10468 10466 10465 10462 10461 10460 10460 10460 10460 10462 10463 10464 10464 10464 10465 10465 10465 10465 10466 10467 10467 10469 10471 10471 10474 10479 10483 10485 10488 10491 10496 10498 10498 10500 10502 10504 10507 10509 10512 10512 10510
10516 10510 10503 10497 10492 10485 10480 10476 10473 10471 10469 10468 10466 10464 10463 10462 10461 10459 10457 10455 10454 10454 10455 10456 10457 10457 10458 10458 10459 10460 10461 10459 10458 10459 10460 10461 10461 10462 10462 10465 10470 10474 10474 10478 10482 10482 10485 10488 10488 10491 10492 10492 10494 10493
10515 10508 10500 10494 10488 10482 10476 10471 10468 10470 10470 10466 10462 10460 10456 10456 10455 10454 10452 10451 10450 10449 10448 10448 10447 10447 10447 10447 10447 10448 10449 10448 10448 10449 10452 10453 10453 10455 10455 10457 10456 10455 10457 10458 10459 10459 10460 10462 10464 10469 10471 10469 10468 10469
10512 10504 10497 10491 10485 10479 10473 10468 10464 10461 10458 10457 10455 10457 10455 10452 10448 10446 10446 10444 10443 10443 10441 10439 10438 10438 10437 10437 10437 10436 10436 10435 10434 10435 10436 10438 10437 10438 10441 10440 10437 10437 10439 10435 10435 10439 10440 10439 10442 10443 10447 10447 10443 10441
10509 10502 10493 10485 10480 10475 10470 10465 10460 10456 10453 10450 10448 10447 10445 10443 10442 10441 10439 10438 10437 10435 10434 10431 10430 10429 10428 10426 10424 10423 10422 10421 10419 10420 10421 10421 10420 10415 10417 10418 10412 10414 10418 10416 10415 10419 10418 10416 10418 10420 10418 10416 10419 10420
10505 10496 10490 10482 10474 10471 10465 10461 10456 10452 10449 10446 10444 10442 10440 10439 10438 10437 10436 10434 10432 10430 10429 10426 10424 10422 10420 10418 10416 10415 10412 10409 10407 10403 10404 10404 10402 10398 10396 10401 10399 10395 10397 10394 10391 10392 10391 10392 10390 10392 10392 10391 10388 10393
10502 10494 10484 10477 10470 10466 10462 10458 10453 10449 10446 10444 10442 10440 10438 10437 10435 10434 10433 10431 10430 10428 10425 10423 10420 10418 10416 10413 10409 10406 10401 10396 10393 10389 10385 10383 10382 10380 10375 10373 10372 10370 10368 10367 10367 10366 10362 10362 10362 10361 10359 10359 10356 10362
10498 10490 10484 10476 10467 10460 10458 10454 10451 10449 10447 10445 10443 10442 10440 10438 10437 10436 10434 10432 10429 10426 10423 10420 10416 10412 10408 10402 10398 10394 10389 10381 10376 10371 10365 10360 10356 10353 10350 10348 10344 10342 10340 10338 10338 10341 10338 10328 10332 10333 10331 10330 10332 10328
10492 10496 10487 10480 10473 10466 10460 10456 10454 10453 10451 10449 10447 10445 10442 10440 10437 10435 10432 10428 10425 10422 10418 10414 10409 10402 10395 10387 10379 10371 10365 10358 10351 10346 10340 10336 10331 10327 10323 10319 10316 10314 10311 10309 10309 10309 10310 10305 10303 10303 10304 10301 10302 10300
10507 10500 10495 10487 10477 10474 10468 10463 10459 10456 10452 10449 10447 10445 10442 10438 10435 10431 10428 10425 10421 10416 10410 10402 10395 10387 10378 10369 10359 10351 10342 10332 10325 10319 10315 10311 10306 10302 10300 10296 10293 10289 10285 10283 10281 10279 10278 10277 10275 10274 10274 10274 10275 10275
10502 10496 10490 10486 10481 10476 10471 10467 10463 10459 10456 10453 10450 10448 10443 10440 10435 10430 10425 10419 10413 10407 10400 10391 10380 10371 10360 10348 10338 10328 10323 10313 10304 10296 10293 10289 10284 10280 10278 10274 10271 10267 10265 10262 10259 10257 10255 10253 10252 10251 10250 10249 10249 10249